Tracking 35048 objects as of 19-Aug-2026
HD Live streaming from Space Station
objects crossing your sky now

SPACEMOBILE-002

Track SPACEMOBILE-002 now!
10-day predictions
SPACEMOBILE-002 is classified as:


NORAD ID: 61048
Int'l Code: 2024-163D
Launch date: September 12, 2024
Source: United States (US)
Launch site: AIR FORCE EASTERN TEST RANGE (AFETR)

Uplink (MHz):
Downlink (MHz): 435.900
Beacon (MHz):
Mode: 2k4 GFSK
Call sign:
Status: Inactive

Your satellite tracking list
Your tracking list is empty




NASA's NSSDC Master Catalog

Two Line Element Set (TLE):
1 61048U 24163D   26230.62129232  .00011677  00000-0  54052-3 0  9996
2 61048  52.9712  22.1038 0004398 313.8527  46.2103 15.20554362107261
Source of the keplerian elements: AFSPC